TimeCDT,TemperatureF,Dew PointF,Humidity,Sea Level PressureIn,VisibilityMPH,Wind Direction,Wind SpeedMPH,Gust SpeedMPH,PrecipitationIn,Events,Conditions,WindDirDegrees,DateUTC
12:15 AM,59.0,53.8,83,30.16,10.0,NNW,6.9,-,N/A,,Overcast,340,2012-10-08 05:15:00
1:15 AM,58.5,53.2,83,30.16,10.0,NW,5.8,-,N/A,,Light Drizzle,310,2012-10-08 06:15:00
2:15 AM,59.0,52.7,80,30.16,10.0,NNW,5.8,-,N/A,,Overcast,340,2012-10-08 07:15:00
3:15 AM,59.0,52.9,80,30.15,10.0,NNW,4.6,-,N/A,,Overcast,330,2012-10-08 08:15:00
3:55 AM,59.2,52.5,79,30.15,10.0,NNW,6.9,-,N/A,,Overcast,340,2012-10-08 08:55:00
4:15 AM,59.2,51.6,76,30.15,10.0,NNW,8.1,-,N/A,,Overcast,340,2012-10-08 09:15:00
4:35 AM,59.0,51.3,75,30.15,10.0,North,9.2,-,N/A,,Overcast,350,2012-10-08 09:35:00
5:35 AM,59.0,50.2,73,30.16,10.0,North,4.6,-,N/A,,Overcast,10,2012-10-08 10:35:00
5:55 AM,58.8,50.0,73,30.16,10.0,North,6.9,-,N/A,,Overcast,350,2012-10-08 10:55:00
6:15 AM,58.5,49.5,72,30.17,10.0,North,4.6,-,N/A,,Overcast,350,2012-10-08 11:15:00
6:35 AM,58.5,49.3,72,30.17,10.0,North,5.8,-,N/A,,Overcast,350,2012-10-08 11:35:00
6:55 AM,58.3,50.0,74,30.17,10.0,NNW,5.8,-,N/A,,Overcast,340,2012-10-08 11:55:00
7:15 AM,58.1,49.5,73,30.18,10.0,North,6.9,-,N/A,,Overcast,350,2012-10-08 12:15:00
7:35 AM,58.1,50.0,74,30.19,10.0,North,5.8,-,N/A,,Overcast,350,2012-10-08 12:35:00
7:55 AM,57.7,50.0,75,30.20,10.0,North,6.9,-,N/A,,Overcast,10,2012-10-08 12:55:00
8:15 AM,57.6,50.0,76,30.21,10.0,North,5.8,-,N/A,,Overcast,360,2012-10-08 13:15:00
8:35 AM,57.4,49.8,76,30.21,10.0,North,8.1,-,N/A,,Overcast,360,2012-10-08 13:35:00
8:55 AM,57.4,49.5,75,30.21,10.0,North,5.8,-,N/A,,Overcast,10,2012-10-08 13:55:00
9:15 AM,57.4,49.3,74,30.23,10.0,North,8.1,-,N/A,,Overcast,350,2012-10-08 14:15:00
9:35 AM,57.4,49.1,74,30.23,10.0,North,6.9,-,N/A,,Overcast,350,2012-10-08 14:35:00
9:55 AM,57.9,50.0,75,30.24,10.0,North,4.6,-,N/A,,Overcast,360,2012-10-08 14:55:00
10:15 AM,58.1,50.0,74,30.24,10.0,North,5.8,-,N/A,,Overcast,350,2012-10-08 15:15:00
10:35 AM,58.1,50.2,75,30.24,10.0,North,5.8,-,N/A,,Overcast,350,2012-10-08 15:35:00
10:55 AM,58.5,50.2,74,30.24,10.0,NNW,5.8,-,N/A,,Overcast,340,2012-10-08 15:55:00
11:15 AM,59.0,50.2,73,30.23,10.0,NNW,8.1,-,N/A,,Overcast,330,2012-10-08 16:15:00
11:35 AM,59.2,50.2,72,30.23,10.0,NNW,5.8,-,N/A,,Overcast,340,2012-10-08 16:35:00
11:55 AM,59.7,50.5,72,30.22,10.0,NNW,8.1,-,N/A,,Overcast,330,2012-10-08 16:55:00
12:15 PM,59.7,50.0,70,30.22,10.0,North,5.8,-,N/A,,Overcast,10,2012-10-08 17:15:00
12:35 PM,60.4,50.2,69,30.21,10.0,North,8.1,-,N/A,,Overcast,350,2012-10-08 17:35:00
12:55 PM,61.3,50.4,67,30.20,10.0,North,5.8,-,N/A,,Overcast,350,2012-10-08 17:55:00
1:15 PM,61.9,50.5,66,30.19,10.0,NNW,5.8,-,N/A,,Overcast,330,2012-10-08 18:15:00
1:35 PM,62.2,50.5,65,30.18,10.0,North,4.6,-,N/A,,Overcast,360,2012-10-08 18:35:00
1:55 PM,62.6,50.5,65,30.18,10.0,NNW,5.8,-,N/A,,Overcast,340,2012-10-08 18:55:00
2:15 PM,62.8,50.7,65,30.17,10.0,Calm,Calm,-,N/A,,Overcast,0,2012-10-08 19:15:00
2:35 PM,63.3,51.3,65,30.15,10.0,North,4.6,-,N/A,,Overcast,350,2012-10-08 19:35:00
2:55 PM,63.5,51.8,66,30.14,10.0,North,3.5,-,N/A,,Overcast,360,2012-10-08 19:55:00
3:15 PM,63.7,51.8,65,30.14,10.0,Calm,Calm,-,N/A,,Overcast,0,2012-10-08 20:15:00
3:35 PM,63.7,51.8,65,30.12,10.0,Calm,Calm,-,N/A,,Overcast,0,2012-10-08 20:35:00
3:55 PM,64.2,52.0,64,30.12,10.0,Calm,Calm,-,N/A,,Overcast,0,2012-10-08 20:55:00
4:15 PM,64.4,51.8,64,30.12,10.0,Calm,Calm,-,N/A,,Overcast,0,2012-10-08 21:15:00
4:35 PM,64.9,52.3,64,30.11,10.0,Calm,Calm,-,N/A,,Overcast,0,2012-10-08 21:35:00
4:55 PM,65.1,52.7,64,30.10,10.0,Calm,Calm,-,N/A,,Overcast,0,2012-10-08 21:55:00
5:15 PM,64.8,52.3,64,30.10,10.0,Calm,Calm,-,N/A,,Overcast,0,2012-10-08 22:15:00
5:35 PM,65.1,52.3,63,30.10,10.0,NE,3.5,-,N/A,,Overcast,40,2012-10-08 22:35:00
5:55 PM,65.3,52.5,63,30.10,10.0,ENE,3.5,-,N/A,,Overcast,70,2012-10-08 22:55:00
6:15 PM,64.9,52.2,63,30.10,10.0,Calm,Calm,-,N/A,,Overcast,0,2012-10-08 23:15:00
6:35 PM,65.1,52.5,64,30.10,10.0,Calm,Calm,-,N/A,,Overcast,0,2012-10-08 23:35:00
6:55 PM,65.1,52.5,64,30.10,10.0,Calm,Calm,-,N/A,,Overcast,0,2012-10-08 23:55:00
7:15 PM,64.9,52.7,64,30.10,10.0,ESE,3.5,-,N/A,,Overcast,110,2012-10-09 00:15:00